Погода в Ерисосе

Греция     40°23′55″N   23°52′38″E
темп.,
°C
ветер,
м/с
пор.,
м/с
влажн.,
%
обл.,
%
осадки,
мм/ч
давл.,
гПа
погр.,
м
17 апреля, сб
сб1700:00+11ссв3379100 0.3 1019367
03:00+12ссв3377100 0.3 1018459
06:00+12св3478100 0.0 1017630
09:00+12ссв5576100 0.1 1016700
12:00+13св3370100 0.0 1016663
15:00+13вюв5471100 0.0 1014606
18:00+14св23705 0.0 1013425
21:00+14св13763 0.0 1012160
18 апреля, вс
вс1800:00+13вюв11770 0.0 1013138
03:00+13вюв54819 0.0 1013468
06:00+12вюв558397 0.0 1012529
09:00+12вюв548598 0.1 1013437
12:00+13вюв5486100 0.0 1014479
15:00+13вюв3385100 0.0 1014296
18:00+13всв3385100 0.0 1013186
21:00+14всв1185100 0.0 1014109
19 апреля, пн
пн1900:00+13св3387100 0.0 1014195
03:00+13св448978 0.1 1012300
06:00+13с348695 0.1 1010263
09:00+13сз118058 0.2 1010162
12:00+15ююв23781 0.4 1008234
15:00+17юз67661 1.3 1006220
18:00+17юз685822 0.0 1004225
21:00+12ссз5680100 0.6 1006147
20 апреля, вт
вт2000:00+13зсз46730 0.0 1007262
03:00+12зсз71466100 0.0 1008947
06:00+11зсз567094 0.0 1010463
09:00+11зсз35684 0.0 1012379
12:00+15сз23574 0.0 1013195
15:00+16ююв23557 0.0 1013353
18:00+18зюз34542 0.0 1012185
21:00+15юз56675 0.0 1014118
21 апреля, ср
ср2100:00+13юз477327 0.1 1015254
03:00+13сз33715 0.1 1015165
06:00+13ссз237091 0.0 1015183
09:00+13ссз226590 0.0 1016197
12:00+13св22709 0.0 1017200
15:00+14вюв22707 0.0 1017212
18:00+15ююв22675 0.0 1016139
21:00+15юз347374 0.0 101767